Location: ????????
(56.0167°N, 38.0333°E)
Time: 07:29:41
(UTC+00:00)

Cosmos 2360 Rocket - Pass Details

Date: 19 May 2025
Orbit: 834 x 842 km, 71.0° (Epoch: 15 June)

Event Time Altitude Azimuth Distance (km) Brightness Sun altitude
Rises 23:10:59 0° 315° (NW) 3,394 5.6 -10.7°
Reaches altitude 10° 23:15:31 10° 281° (W) 2,453 4.5 -10.4°
Maximum altitude 23:16:56 11° 266° (W) 2,383 4.3 -10.4°
Drops below altitude 10° 23:18:20 10° 252° (WSW) 2,449 4.2 -10.3°
Enters shadow 23:19:36 - 240° (WSW) 2,616 4.2 -10.2°
